sat.trackr.live / text

‹ back to catalog

STARLINK-5983

NORAD 57224 · 2023-094G

PAYLOAD ACTIVE UNKNOWN

§ Identity

Operator
Country
US
Launch date
2023-07-07
Launch site
AFWTR
Launch vehicle
Mass (kg)
RCS (m²)

Purposes: comms

External: N2YO · Heavens-Above · Gunter

§ Orbital elements

Epoch: 2026-05-24T21:34:22.960704Z

Period
94.27 min
Inclination
43.0022°
Eccentricity
0.0001524
Mean motion
15.27576564 rev/d
Perigee alt
482.0 km
Apogee alt
484.1 km
Semi-major
6,861.2 km
B*
2.2144e-5
RAAN
320.0793°
Arg perigee
259.3014°
Mean anomaly
100.7666°
Rev number
15,877

§ Raw data

STARLINK-59831 57224U 23094G   26144.89887686  .00000347  00000+0  22144-4 0  99952 57224  43.0022 320.0793 0001524 259.3014 100.7666 15.27576564158775

JSON: /api/v1/satellites/57224 · /tle

For live sub-satellite position, see the globe view (requires WebGL).

§ Visibility from observer

Set your observer location to see the next 7 days of passes ≥ 10°. The values pass through the URL so the page stays shareable.

No JS? Fill the form by hand. The geolocation button needs JavaScript.